{"data":{"norad_id":61607,"intl_designator":"2024-188P","name":"ONEWEB-0701","alt_names":[],"object_type":"PAYLOAD","status":"ACTIVE","operator":null,"country":"UK","launch_date":"2024-10-20","launch_site_code":"AFWTR","launch_vehicle":null,"mission":null,"orbit_class":"UNKNOWN","rcs_meters":null,"size_class":null,"mass_kg":null,"dimensions":null,"purposes":["comms"],"wikipedia_slug":null,"has_3d_model":false,"image_url":null,"decayed_at":null,"tle_current":{"epoch":"2026-09-19T14:40:57.344448Z","epoch_age_seconds":94938,"freshness":"FRESH","line1":"1 61607U 24188P   26262.61177482  .00000561  00000+0  15720-2 0  9995","line2":"2 61607  87.8911  17.4711 0001093  83.3375 276.7876 13.10378574 95678","mean_motion":13.10378574,"eccentricity":0.0001093,"inclination_deg":87.8911,"raan_deg":17.4711,"arg_perigee_deg":83.3375,"mean_anomaly_deg":276.7876,"bstar":0.001572,"rev_number":9567,"period_min":109.89190670329,"perigee_km":1220.8642297358,"apogee_km":1222.5255529873,"semimajor_km":7599.8318913615,"source":"CELESTRAK","updated_at":"2026-09-20T09:00:44.800888Z"}}}